Time,TemperatureF,DewpointF,PressureIn,WindDirection,WindDirectionDegrees,WindSpeedMPH,WindSpeedGustMPH,Humidity,HourlyPrecipIn,Conditions,Clouds,dailyrainin,SoftwareType,DateUTC
2013-01-25 00:00:00,32.1,11.6,30.54,SSW,192,0.0,1.0,42,0.00,,,0.00,Wunderground v.1.13,2013-01-25 05:00:00,
2013-01-25 00:01:00,32.1,11.6,30.54,SSW,192,0.0,1.0,42,0.00,,,0.00,Wunderground v.1.13,2013-01-25 05:01:00,
2013-01-25 00:03:00,32.0,11.5,30.54,WNW,285,1.0,1.0,42,0.00,,,0.00,Wunderground v.1.13,2013-01-25 05:03:00,
2013-01-25 00:05:00,32.0,12.0,30.54,WSW,240,0.0,1.0,43,0.00,,,0.00,Wunderground v.1.13,2013-01-25 05:05:00,
2013-01-25 00:11:00,31.8,11.8,30.53,SSW,205,1.0,1.0,43,0.00,,,0.00,Wunderground v.1.13,2013-01-25 05:11:00,
2013-01-25 00:17:00,31.6,12.2,30.53,SSE,161,0.0,1.0,44,0.00,,,0.00,Wunderground v.1.13,2013-01-25 05:17:00,
2013-01-25 00:22:00,31.5,12.6,30.53,South,172,0.0,1.0,45,0.00,,,0.00,Wunderground v.1.13,2013-01-25 05:22:00,
2013-01-25 00:27:00,31.3,12.4,30.53,ESE,106,0.0,1.0,45,0.00,,,0.00,Wunderground v.1.13,2013-01-25 05:27:00,
2013-01-25 00:32:00,31.2,12.3,30.53,SSE,167,0.0,0.0,45,0.00,,,0.00,Wunderground v.1.13,2013-01-25 05:32:00,
2013-01-25 00:37:00,31.1,12.7,30.53,SSE,167,1.0,2.0,46,0.00,,,0.00,Wunderground v.1.13,2013-01-25 05:37:00,
2013-01-25 00:42:00,30.9,13.0,30.53,NNE,23,0.0,1.0,47,0.00,,,0.00,Wunderground v.1.13,2013-01-25 05:42:00,
2013-01-25 00:47:00,30.8,12.9,30.53,SW,229,1.0,1.0,47,0.00,,,0.00,Wunderground v.1.13,2013-01-25 05:47:00,
2013-01-25 00:52:00,30.7,13.3,30.54,ESE,107,0.0,3.0,48,0.00,,,0.00,Wunderground v.1.13,2013-01-25 05:52:00,
2013-01-25 00:58:00,30.7,13.3,30.53,NE,56,0.0,1.0,48,0.00,,,0.00,Wunderground v.1.13,2013-01-25 05:58:00,
2013-01-25 01:03:00,30.6,13.7,30.53,SE,135,0.0,1.0,49,0.00,,,0.00,Wunderground v.1.13,2013-01-25 06:03:00,
2013-01-25 01:08:00,30.4,13.5,30.52,South,190,0.0,3.0,49,0.00,,,0.00,Wunderground v.1.13,2013-01-25 06:08:00,
2013-01-25 01:14:00,30.2,13.3,30.52,South,190,6.0,6.0,49,0.00,,,0.00,Wunderground v.1.13,2013-01-25 06:14:00,
2013-01-25 01:19:00,30.1,13.2,30.52,South,171,0.0,6.0,49,0.00,,,0.00,Wunderground v.1.13,2013-01-25 06:19:00,
2013-01-25 01:24:00,30.0,13.6,30.52,East,94,3.0,3.0,50,0.00,,,0.00,Wunderground v.1.13,2013-01-25 06:24:00,
2013-01-25 01:29:00,29.9,13.5,30.52,SE,144,1.0,2.0,50,0.00,,,0.00,Wunderground v.1.13,2013-01-25 06:29:00,
2013-01-25 01:34:00,29.8,13.4,30.54,South,182,6.0,6.0,50,0.00,,,0.00,Wunderground v.1.13,2013-01-25 06:34:00,
2013-01-25 01:39:00,29.7,13.3,30.54,WSW,257,0.0,2.0,50,0.00,,,0.00,Wunderground v.1.13,2013-01-25 06:39:00,
2013-01-25 01:44:00,29.6,13.2,30.55,South,182,0.0,2.0,50,0.00,,,0.00,Wunderground v.1.13,2013-01-25 06:44:00,
2013-01-25 01:49:00,29.4,13.0,30.54,SSW,194,0.0,2.0,50,0.00,,,0.00,Wunderground v.1.13,2013-01-25 06:49:00,
2013-01-25 01:54:00,29.3,12.9,30.55,South,182,3.0,3.0,50,0.00,,,0.00,Wunderground v.1.13,2013-01-25 06:54:00,
2013-01-25 01:59:00,29.2,12.4,30.55,SW,234,7.0,7.0,49,0.00,,,0.00,Wunderground v.1.13,2013-01-25 06:59:00,
2013-01-25 02:04:00,29.2,12.4,30.55,SSE,167,0.0,5.0,49,0.00,,,0.00,Wunderground v.1.13,2013-01-25 07:04:00,
2013-01-25 02:09:00,29.2,12.4,30.55,South,177,1.0,7.0,49,0.00,,,0.00,Wunderground v.1.13,2013-01-25 07:09:00,
2013-01-25 02:14:00,29.0,12.2,30.55,ESE,114,0.0,6.0,49,0.00,,,0.00,Wunderground v.1.13,2013-01-25 07:14:00,
2013-01-25 02:19:00,29.0,12.2,30.55,SW,217,0.0,7.0,49,0.00,,,0.00,Wunderground v.1.13,2013-01-25 07:19:00,
2013-01-25 02:24:00,28.9,12.1,30.54,SE,146,0.0,5.0,49,0.00,,,0.00,Wunderground v.1.13,2013-01-25 07:24:00,
2013-01-25 02:29:00,28.9,12.1,30.54,South,186,0.0,10.0,49,0.00,,,0.00,Wunderground v.1.13,2013-01-25 07:29:00,
2013-01-25 02:34:00,28.9,12.6,30.54,SE,131,2.0,3.0,50,0.00,,,0.00,Wunderground v.1.13,2013-01-25 07:34:00,
2013-01-25 02:39:00,28.8,12.0,30.54,SW,229,0.0,6.0,49,0.00,,,0.00,Wunderground v.1.13,2013-01-25 07:39:00,
2013-01-25 02:44:00,28.8,11.6,30.54,South,177,0.0,7.0,48,0.00,,,0.00,Wunderground v.1.13,2013-01-25 07:44:00,
2013-01-25 02:49:00,28.7,11.5,30.54,South,177,3.0,13.0,48,0.00,,,0.00,Wunderground v.1.13,2013-01-25 07:49:00,
2013-01-25 02:54:00,28.6,11.8,30.54,SE,144,0.0,5.0,49,0.00,,,0.00,Wunderground v.1.13,2013-01-25 07:54:00,
2013-01-25 02:59:00,28.5,11.3,30.54,South,174,0.0,7.0,48,0.00,,,0.00,Wunderground v.1.13,2013-01-25 07:59:00,
2013-01-25 03:04:00,28.5,11.3,30.54,WNW,298,1.0,5.0,48,0.00,,,0.00,Wunderground v.1.13,2013-01-25 08:04:00,
2013-01-25 03:09:00,28.3,11.1,30.55,South,182,6.0,9.0,48,0.00,,,0.00,Wunderground v.1.13,2013-01-25 08:09:00,
2013-01-25 03:14:00,28.3,11.1,30.54,South,178,0.0,5.0,48,0.00,,,0.00,Wunderground v.1.13,2013-01-25 08:14:00,
2013-01-25 03:19:00,28.2,11.5,30.54,SSW,205,1.0,5.0,49,0.00,,,0.00,Wunderground v.1.13,2013-01-25 08:19:00,
2013-01-25 03:24:00,28.1,10.9,30.54,South,188,3.0,4.0,48,0.00,,,0.00,Wunderground v.1.13,2013-01-25 08:24:00,
2013-01-25 03:29:00,28.1,10.9,30.55,South,181,0.0,3.0,48,0.00,,,0.00,Wunderground v.1.13,2013-01-25 08:29:00,
2013-01-25 03:34:00,28.1,11.4,30.55,SSW,211,0.0,7.0,49,0.00,,,0.00,Wunderground v.1.13,2013-01-25 08:34:00,
2013-01-25 03:39:00,28.1,10.9,30.56,South,185,1.0,4.0,48,0.00,,,0.00,Wunderground v.1.13,2013-01-25 08:39:00,
2013-01-25 03:44:00,28.1,10.9,30.54,SSW,205,0.0,3.0,48,0.00,,,0.00,Wunderground v.1.13,2013-01-25 08:44:00,
2013-01-25 03:49:00,28.1,10.4,30.54,South,186,1.0,4.0,47,0.00,,,0.00,Wunderground v.1.13,2013-01-25 08:49:00,
2013-01-25 03:54:00,28.0,9.9,30.53,SE,136,0.0,10.0,46,0.00,,,0.00,Wunderground v.1.13,2013-01-25 08:54:00,
2013-01-25 04:00:00,27.9,9.8,30.53,South,184,0.0,1.0,46,0.00,,,0.00,Wunderground v.1.13,2013-01-25 09:00:00,
2013-01-25 04:05:00,27.9,9.8,30.53,South,189,0.0,1.0,46,0.00,,,0.00,Wunderground v.1.13,2013-01-25 09:05:00,
2013-01-25 04:10:00,27.9,9.8,30.52,South,191,0.0,2.0,46,0.00,,,0.00,Wunderground v.1.13,2013-01-25 09:10:00,
2013-01-25 04:15:00,27.8,9.7,30.52,South,170,1.0,1.0,46,0.00,,,0.00,Wunderground v.1.13,2013-01-25 09:15:00,
2013-01-25 04:20:00,27.7,9.6,30.51,SE,142,2.0,3.0,46,0.00,,,0.00,Wunderground v.1.13,2013-01-25 09:20:00,
2013-01-25 04:25:00,27.6,9.0,30.51,South,182,0.0,1.0,45,0.00,,,0.00,Wunderground v.1.13,2013-01-25 09:25:00,
2013-01-25 04:30:00,27.6,9.5,30.50,East,81,0.0,1.0,46,0.00,,,0.00,Wunderground v.1.13,2013-01-25 09:30:00,
2013-01-25 04:35:00,27.5,9.9,30.50,East,98,0.0,0.0,47,0.00,,,0.00,Wunderground v.1.13,2013-01-25 09:35:00,
2013-01-25 04:40:00,27.5,9.4,30.50,SSW,205,3.0,3.0,46,0.00,,,0.00,Wunderground v.1.13,2013-01-25 09:40:00,
2013-01-25 04:45:00,27.5,9.4,30.51,WNW,290,2.0,2.0,46,0.00,,,0.00,Wunderground v.1.13,2013-01-25 09:45:00,
2013-01-25 04:50:00,27.5,9.4,30.51,South,176,1.0,1.0,46,0.00,,,0.00,Wunderground v.1.13,2013-01-25 09:50:00,
2013-01-25 04:55:00,27.5,9.9,30.51,SSE,148,0.0,1.0,47,0.00,,,0.00,Wunderground v.1.13,2013-01-25 09:55:00,
2013-01-25 05:00:00,27.5,9.4,30.50,SSE,165,1.0,1.0,46,0.00,,,0.00,Wunderground v.1.13,2013-01-25 10:00:00,
2013-01-25 05:05:00,27.5,9.9,30.50,South,186,0.0,3.0,47,0.00,,,0.00,Wunderground v.1.13,2013-01-25 10:05:00,
2013-01-25 05:10:00,27.5,9.4,30.50,WSW,251,1.0,1.0,46,0.00,,,0.00,Wunderground v.1.13,2013-01-25 10:10:00,
2013-01-25 05:15:00,27.5,9.9,30.50,WSW,251,3.0,3.0,47,0.00,,,0.00,Wunderground v.1.13,2013-01-25 10:15:00,
2013-01-25 05:20:00,27.5,9.4,30.50,SSE,158,2.0,3.0,46,0.00,,,0.00,Wunderground v.1.13,2013-01-25 10:20:00,
2013-01-25 05:25:00,27.5,9.4,30.51,WSW,241,2.0,3.0,46,0.00,,,0.00,Wunderground v.1.13,2013-01-25 10:25:00,
2013-01-25 05:30:00,27.4,9.3,30.50,SSW,195,2.0,2.0,46,0.00,,,0.00,Wunderground v.1.13,2013-01-25 10:30:00,
2013-01-25 05:35:00,27.4,9.3,30.50,South,182,0.0,8.0,46,0.00,,,0.00,Wunderground v.1.13,2013-01-25 10:35:00,
2013-01-25 05:40:00,27.4,9.3,30.51,South,175,0.0,1.0,46,0.00,,,0.00,Wunderground v.1.13,2013-01-25 10:40:00,
2013-01-25 05:45:00,27.4,9.3,30.50,SW,229,0.0,4.0,46,0.00,,,0.00,Wunderground v.1.13,2013-01-25 10:45:00,
2013-01-25 05:50:00,27.4,9.3,30.51,SSW,204,1.0,2.0,46,0.00,,,0.00,Wunderground v.1.13,2013-01-25 10:50:00,
2013-01-25 05:55:00,27.4,9.3,30.51,SSE,161,0.0,3.0,46,0.00,,,0.00,Wunderground v.1.13,2013-01-25 10:55:00,
2013-01-25 06:00:00,27.4,8.8,30.50,SSW,211,0.0,1.0,45,0.00,,,0.00,Wunderground v.1.13,2013-01-25 11:00:00,
2013-01-25 06:05:00,27.4,8.8,30.50,SE,129,0.0,1.0,45,0.00,,,0.00,Wunderground v.1.13,2013-01-25 11:05:00,
2013-01-25 06:10:00,27.4,8.3,30.50,SE,132,1.0,1.0,44,0.00,,,0.00,Wunderground v.1.13,2013-01-25 11:10:00,
2013-01-25 06:16:00,27.4,8.3,30.50,SW,234,0.0,6.0,44,0.00,,,0.00,Wunderground v.1.13,2013-01-25 11:16:00,
2013-01-25 06:21:00,27.4,8.8,30.50,South,182,0.0,1.0,45,0.00,,,0.00,Wunderground v.1.13,2013-01-25 11:21:00,
2013-01-25 06:26:00,27.4,8.8,30.49,WSW,252,0.0,2.0,45,0.00,,,0.00,Wunderground v.1.13,2013-01-25 11:26:00,
2013-01-25 06:31:00,27.4,8.8,30.50,SW,227,0.0,0.0,45,0.00,,,0.00,Wunderground v.1.13,2013-01-25 11:31:00,
2013-01-25 06:36:00,27.4,8.8,30.51,WNW,292,0.0,1.0,45,0.00,,,0.00,Wunderground v.1.13,2013-01-25 11:36:00,
2013-01-25 06:41:00,27.4,8.8,30.50,NNW,344,0.0,2.0,45,0.00,,,0.00,Wunderground v.1.13,2013-01-25 11:41:00,
2013-01-25 06:46:00,27.4,9.3,30.51,West,269,3.0,4.0,46,0.00,,,0.00,Wunderground v.1.13,2013-01-25 11:46:00,
2013-01-25 06:51:00,27.5,9.4,30.51,West,271,0.0,2.0,46,0.00,,,0.00,Wunderground v.1.13,2013-01-25 11:51:00,
2013-01-25 06:56:00,27.5,8.9,30.51,North,9,0.0,1.0,45,0.00,,,0.00,Wunderground v.1.13,2013-01-25 11:56:00,
2013-01-25 07:01:00,27.6,10.0,30.50,North,9,0.0,1.0,47,0.00,,,0.00,Wunderground v.1.13,2013-01-25 12:01:00,
2013-01-25 07:06:00,27.6,13.5,30.50,South,191,1.0,3.0,55,0.00,,,0.00,Wunderground v.1.13,2013-01-25 12:06:00,
2013-01-25 07:11:00,27.4,15.3,30.51,SSW,200,0.0,3.0,60,0.00,,,0.00,Wunderground v.1.13,2013-01-25 12:11:00,
2013-01-25 07:16:00,27.1,15.8,30.51,SW,221,1.0,1.0,62,0.00,,,0.00,Wunderground v.1.13,2013-01-25 12:16:00,
2013-01-25 07:21:00,26.8,16.6,30.50,SSW,203,2.0,2.0,65,0.00,,,0.00,Wunderground v.1.13,2013-01-25 12:21:00,
2013-01-25 07:26:00,26.5,16.0,30.50,South,176,1.0,2.0,64,0.00,,,0.00,Wunderground v.1.13,2013-01-25 12:26:00,
2013-01-25 07:31:00,26.3,15.4,30.50,SSE,165,0.0,1.0,63,0.00,,,0.00,Wunderground v.1.13,2013-01-25 12:31:00,
2013-01-25 07:36:00,26.3,15.0,30.51,NE,48,0.0,2.0,62,0.00,,,0.00,Wunderground v.1.13,2013-01-25 12:36:00,
2013-01-25 07:41:00,26.3,13.9,30.51,South,185,0.0,3.0,59,0.00,,,0.00,Wunderground v.1.13,2013-01-25 12:41:00,
2013-01-25 07:46:00,26.3,14.3,30.50,South,177,0.0,6.0,60,0.00,,,0.00,Wunderground v.1.13,2013-01-25 12:46:00,
2013-01-25 07:51:00,26.3,13.9,30.51,SE,138,0.0,5.0,59,0.00,,,0.00,Wunderground v.1.13,2013-01-25 12:51:00,
2013-01-25 07:56:00,26.3,13.9,30.50,SSE,168,0.0,3.0,59,0.00,,,0.00,Wunderground v.1.13,2013-01-25 12:56:00,
2013-01-25 08:01:00,26.3,15.4,30.50,SSW,192,0.0,1.0,63,0.00,,,0.00,Wunderground v.1.13,2013-01-25 13:01:00,
2013-01-25 08:06:00,26.3,15.0,30.50,SW,229,0.0,1.0,62,0.00,,,0.00,Wunderground v.1.13,2013-01-25 13:06:00,
2013-01-25 08:11:00,26.3,14.3,30.50,South,191,3.0,3.0,60,0.00,,,0.00,Wunderground v.1.13,2013-01-25 13:11:00,
2013-01-25 08:16:00,26.4,15.5,30.50,South,180,1.0,3.0,63,0.00,,,0.00,Wunderground v.1.13,2013-01-25 13:16:00,
2013-01-25 08:21:00,26.4,15.1,30.51,South,187,0.0,1.0,62,0.00,,,0.00,Wunderground v.1.13,2013-01-25 13:21:00,
2013-01-25 08:26:00,26.5,17.4,30.50,South,187,0.0,0.0,68,0.00,,,0.00,Wunderground v.1.13,2013-01-25 13:26:00,
2013-01-25 08:32:00,26.4,17.3,30.49,SSE,163,3.0,4.0,68,0.00,,,0.00,Wunderground v.1.13,2013-01-25 13:32:00,
2013-01-25 08:37:00,26.2,17.1,30.50,South,171,1.0,8.0,68,0.00,,,0.00,Wunderground v.1.13,2013-01-25 13:37:00,
2013-01-25 08:42:00,26.1,17.0,30.50,SSE,166,0.0,4.0,68,0.00,,,0.00,Wunderground v.1.13,2013-01-25 13:42:00,
2013-01-25 08:47:00,26.2,18.1,30.50,SSW,203,0.0,5.0,71,0.00,,,0.00,Wunderground v.1.13,2013-01-25 13:47:00,
2013-01-25 08:52:00,26.2,19.4,30.49,West,263,0.0,2.0,75,0.00,,,0.00,Wunderground v.1.13,2013-01-25 13:52:00,
2013-01-25 08:57:00,26.2,19.4,30.50,SSW,211,0.0,2.0,75,0.00,,,0.00,Wunderground v.1.13,2013-01-25 13:57:00,
2013-01-25 09:02:00,26.2,19.7,30.50,SE,142,1.0,1.0,76,0.00,,,0.00,Wunderground v.1.13,2013-01-25 14:02:00,
2013-01-25 09:07:00,26.1,18.9,30.50,WSW,248,0.0,1.0,74,0.00,,,0.00,Wunderground v.1.13,2013-01-25 14:07:00,
2013-01-25 09:12:00,26.2,18.1,30.50,WNW,288,0.0,1.0,71,0.00,,,0.00,Wunderground v.1.13,2013-01-25 14:12:00,
2013-01-25 09:17:00,26.2,18.7,30.50,WNW,288,0.0,1.0,73,0.00,,,0.00,Wunderground v.1.13,2013-01-25 14:17:00,
2013-01-25 09:22:00,26.3,19.1,30.50,SSE,164,0.0,2.0,74,0.00,,,0.00,Wunderground v.1.13,2013-01-25 14:22:00,
2013-01-25 09:27:00,26.3,19.8,30.50,SSE,164,0.0,0.0,76,0.00,,,0.00,Wunderground v.1.13,2013-01-25 14:27:00,
2013-01-25 09:32:00,26.7,21.1,30.48,SE,146,0.0,3.0,79,0.00,,,0.00,Wunderground v.1.13,2013-01-25 14:32:00,
2013-01-25 09:37:00,26.9,22.1,30.49,SSE,153,0.0,0.0,82,0.00,,,0.00,Wunderground v.1.13,2013-01-25 14:37:00,
2013-01-25 09:42:00,26.9,22.1,30.47,SSE,157,3.0,6.0,82,0.00,,,0.00,Wunderground v.1.13,2013-01-25 14:42:00,
2013-01-25 09:47:00,26.7,21.4,30.47,NE,36,1.0,2.0,80,0.00,,,0.00,Wunderground v.1.13,2013-01-25 14:47:00,
2013-01-25 09:52:00,26.7,21.7,30.47,SSE,163,0.0,1.0,81,0.00,,,0.00,Wunderground v.1.13,2013-01-25 14:52:00,
2013-01-25 09:57:00,26.6,21.0,30.48,West,261,1.0,2.0,79,0.00,,,0.00,Wunderground v.1.13,2013-01-25 14:57:00,
2013-01-25 10:02:00,26.6,21.8,30.48,NNW,348,0.0,2.0,82,0.00,,,0.00,Wunderground v.1.13,2013-01-25 15:02:00,
2013-01-25 10:07:00,26.7,21.9,30.48,South,176,0.0,2.0,82,0.00,,,0.00,Wunderground v.1.13,2013-01-25 15:07:00,
2013-01-25 10:12:00,26.7,21.9,30.48,SSW,194,0.0,1.0,82,0.00,,,0.00,Wunderground v.1.13,2013-01-25 15:12:00,
2013-01-25 10:17:00,26.7,22.2,30.48,East,89,1.0,3.0,83,0.00,,,0.00,Wunderground v.1.13,2013-01-25 15:17:00,
2013-01-25 10:22:00,26.9,22.4,30.47,SSE,150,0.0,3.0,83,0.00,,,0.00,Wunderground v.1.13,2013-01-25 15:22:00,
2013-01-25 10:27:00,27.1,22.6,30.48,SSE,150,0.0,1.0,83,0.00,,,0.00,Wunderground v.1.13,2013-01-25 15:27:00,
2013-01-25 10:32:00,27.2,23.0,30.47,SSE,150,0.0,1.0,84,0.00,,,0.00,Wunderground v.1.13,2013-01-25 15:32:00,
2013-01-25 10:37:00,27.5,23.3,30.47,South,175,0.0,1.0,84,0.00,,,0.00,Wunderground v.1.13,2013-01-25 15:37:00,
2013-01-25 10:42:00,27.8,23.9,30.47,ESE,113,0.0,5.0,85,0.00,,,0.00,Wunderground v.1.13,2013-01-25 15:42:00,
2013-01-25 10:48:00,28.2,24.0,30.47,SSW,199,0.0,5.0,84,0.00,,,0.00,Wunderground v.1.13,2013-01-25 15:48:00,
2013-01-25 10:53:00,28.5,24.3,30.48,SSW,199,0.0,1.0,84,0.00,,,0.00,Wunderground v.1.13,2013-01-25 15:53:00,
2013-01-25 10:58:00,28.7,24.2,30.48,South,180,0.0,2.0,83,0.00,,,0.00,Wunderground v.1.13,2013-01-25 15:58:00,
2013-01-25 11:03:00,29.0,24.8,30.48,South,180,0.0,0.0,84,0.00,,,0.00,Wunderground v.1.13,2013-01-25 16:03:00,
2013-01-25 11:08:00,29.1,25.4,30.48,South,180,0.0,0.0,86,0.00,,,0.00,Wunderground v.1.13,2013-01-25 16:08:00,
2013-01-25 11:13:00,29.3,25.6,30.47,South,191,0.0,1.0,86,0.00,,,0.00,Wunderground v.1.13,2013-01-25 16:13:00,
2013-01-25 11:18:00,29.6,25.4,30.48,East,94,0.0,5.0,84,0.00,,,0.00,Wunderground v.1.13,2013-01-25 16:18:00,
2013-01-25 11:23:00,29.8,25.8,30.48,East,94,0.0,1.0,85,0.00,,,0.00,Wunderground v.1.13,2013-01-25 16:23:00,
2013-01-25 11:28:00,30.0,25.8,30.47,East,94,0.0,1.0,84,0.00,,,0.00,Wunderground v.1.13,2013-01-25 16:28:00,
2013-01-25 11:33:00,30.2,26.2,30.47,East,94,0.0,1.0,85,0.00,,,0.00,Wunderground v.1.13,2013-01-25 16:33:00,
2013-01-25 11:38:00,30.3,26.0,30.45,SSE,167,4.0,4.0,84,0.00,,,0.00,Wunderground v.1.13,2013-01-25 16:38:00,
2013-01-25 11:43:00,30.5,26.0,30.45,ESE,107,1.0,1.0,83,0.00,,,0.00,Wunderground v.1.13,2013-01-25 16:43:00,
2013-01-25 11:48:00,30.6,26.1,30.45,ESE,111,0.0,8.0,83,0.00,,,0.00,Wunderground v.1.13,2013-01-25 16:48:00,
2013-01-25 11:53:00,30.7,26.1,30.44,SE,142,0.0,1.0,83,0.00,,,0.00,Wunderground v.1.13,2013-01-25 16:53:00,
2013-01-25 11:58:00,30.7,25.9,30.44,SE,143,0.0,4.0,82,0.00,,,0.00,Wunderground v.1.13,2013-01-25 16:58:00,
2013-01-25 12:03:00,30.7,25.9,30.43,SSW,195,0.0,3.0,82,0.00,,,0.00,Wunderground v.1.13,2013-01-25 17:03:00,
2013-01-25 12:08:00,30.7,26.1,30.43,SSW,200,1.0,8.0,83,0.00,,,0.00,Wunderground v.1.13,2013-01-25 17:08:00,
2013-01-25 12:13:00,30.8,26.2,30.42,ESE,117,0.0,1.0,83,0.00,,,0.00,Wunderground v.1.13,2013-01-25 17:13:00,
2013-01-25 12:18:00,30.8,26.5,30.42,ESE,117,0.0,0.0,84,0.00,,,0.00,Wunderground v.1.13,2013-01-25 17:18:00,
2013-01-25 12:23:00,30.9,26.3,30.42,SSE,160,0.0,2.0,83,0.00,,,0.00,Wunderground v.1.13,2013-01-25 17:23:00,
2013-01-25 12:28:00,31.1,27.4,30.41,SE,141,0.0,0.0,86,0.00,,,0.00,Wunderground v.1.13,2013-01-25 17:28:00,
2013-01-25 12:33:00,31.4,27.4,30.42,SSW,209,0.0,6.0,85,0.00,,,0.00,Wunderground v.1.13,2013-01-25 17:33:00,
2013-01-25 12:38:00,31.5,27.8,30.42,SSW,209,0.0,0.0,86,0.00,,,0.00,Wunderground v.1.13,2013-01-25 17:38:00,
2013-01-25 12:43:00,31.7,28.8,30.42,SSW,209,0.0,0.0,89,0.00,,,0.00,Wunderground v.1.13,2013-01-25 17:43:00,
2013-01-25 12:48:00,31.9,29.6,30.41,SSW,209,0.0,0.0,91,0.00,,,0.00,Wunderground v.1.13,2013-01-25 17:48:00,
2013-01-25 12:53:00,32.1,30.0,30.41,SSW,209,0.0,0.0,92,0.00,,,0.00,Wunderground v.1.13,2013-01-25 17:53:00,
2013-01-25 12:58:00,32.2,30.1,30.42,SSW,209,0.0,1.0,92,0.00,,,0.00,Wunderground v.1.13,2013-01-25 17:58:00,
2013-01-25 13:03:00,32.2,30.1,30.41,SSW,209,0.0,0.0,92,0.00,,,0.00,Wunderground v.1.13,2013-01-25 18:03:00,
2013-01-25 13:08:00,32.2,30.1,30.40,SSW,209,0.0,0.0,92,0.00,,,0.00,Wunderground v.1.13,2013-01-25 18:08:00,
2013-01-25 13:13:00,32.3,30.5,30.39,SSW,209,0.0,0.0,93,0.00,,,0.00,Wunderground v.1.13,2013-01-25 18:13:00,
2013-01-25 13:19:00,32.3,30.5,30.38,South,181,0.0,4.0,93,0.00,,,0.00,Wunderground v.1.13,2013-01-25 18:19:00,
2013-01-25 13:24:00,32.3,30.5,30.38,South,181,0.0,0.0,93,0.00,,,0.00,Wunderground v.1.13,2013-01-25 18:24:00,
2013-01-25 13:29:00,32.4,30.9,30.40,South,181,0.0,0.0,94,0.00,,,0.00,Wunderground v.1.13,2013-01-25 18:29:00,
2013-01-25 13:34:00,32.4,30.9,30.42,West,277,0.0,1.0,94,0.00,,,0.00,Wunderground v.1.13,2013-01-25 18:34:00,
2013-01-25 13:39:00,32.3,30.8,30.42,West,277,0.0,0.0,94,0.00,,,0.00,Wunderground v.1.13,2013-01-25 18:39:00,
2013-01-25 13:44:00,32.3,30.8,30.41,West,277,0.0,0.0,94,0.00,,,0.00,Wunderground v.1.13,2013-01-25 18:44:00,
2013-01-25 13:49:00,32.3,30.8,30.41,West,277,0.0,0.0,94,0.00,,,0.00,Wunderground v.1.13,2013-01-25 18:49:00,
2013-01-25 13:54:00,32.5,31.2,30.40,West,277,0.0,0.0,95,0.00,,,0.00,Wunderground v.1.13,2013-01-25 18:54:00,
2013-01-25 13:59:00,32.6,31.3,30.39,West,277,0.0,1.0,95,0.00,,,0.00,Wunderground v.1.13,2013-01-25 18:59:00,
2013-01-25 14:04:00,32.7,31.4,30.39,West,277,0.0,0.0,95,0.00,,,0.00,Wunderground v.1.13,2013-01-25 19:04:00,
2013-01-25 14:09:00,32.8,31.5,30.38,West,277,0.0,0.0,95,0.00,,,0.00,Wunderground v.1.13,2013-01-25 19:09:00,
2013-01-25 14:14:00,32.9,31.6,30.38,West,277,0.0,0.0,95,0.00,,,0.00,Wunderground v.1.13,2013-01-25 19:14:00,
2013-01-25 14:19:00,32.8,31.5,30.37,West,277,0.0,0.0,95,0.00,,,0.00,Wunderground v.1.13,2013-01-25 19:19:00,
2013-01-25 14:24:00,32.9,31.6,30.37,West,277,0.0,0.0,95,0.00,,,0.00,Wunderground v.1.13,2013-01-25 19:24:00,
2013-01-25 14:29:00,32.9,31.6,30.38,West,277,0.0,0.0,95,0.00,,,0.00,Wunderground v.1.13,2013-01-25 19:29:00,
2013-01-25 14:34:00,32.8,31.5,30.38,West,277,0.0,1.0,95,0.00,,,0.00,Wunderground v.1.13,2013-01-25 19:34:00,
2013-01-25 14:39:00,32.7,31.4,30.37,West,277,0.0,1.0,95,0.00,,,0.00,Wunderground v.1.13,2013-01-25 19:39:00,
2013-01-25 14:44:00,32.8,31.5,30.37,West,277,0.0,0.0,95,0.00,,,0.00,Wunderground v.1.13,2013-01-25 19:44:00,
2013-01-25 14:49:00,32.9,31.9,30.36,West,277,0.0,0.0,96,0.00,,,0.00,Wunderground v.1.13,2013-01-25 19:49:00,
2013-01-25 14:54:00,33.0,32.0,30.36,West,277,0.0,0.0,96,0.00,,,0.00,Wunderground v.1.13,2013-01-25 19:54:00,
2013-01-25 14:59:00,33.2,32.2,30.35,West,277,0.0,0.0,96,0.00,,,0.00,Wunderground v.1.13,2013-01-25 19:59:00,
2013-01-25 15:04:00,33.2,32.2,30.36,West,277,0.0,0.0,96,0.00,,,0.00,Wunderground v.1.13,2013-01-25 20:04:00,
2013-01-25 15:09:00,33.3,32.3,30.35,West,277,0.0,0.0,96,0.00,,,0.00,Wunderground v.1.13,2013-01-25 20:09:00,
2013-01-25 15:14:00,33.3,32.3,30.35,West,277,0.0,0.0,96,0.00,,,0.00,Wunderground v.1.13,2013-01-25 20:14:00,
2013-01-25 15:19:00,33.4,32.4,30.35,West,277,0.0,0.0,96,0.00,,,0.00,Wunderground v.1.13,2013-01-25 20:19:00,
2013-01-25 15:24:00,33.5,32.5,30.35,West,277,0.0,0.0,96,0.00,,,0.00,Wunderground v.1.13,2013-01-25 20:24:00,
2013-01-25 15:29:00,33.7,32.7,30.34,West,277,0.0,1.0,96,0.00,,,0.00,Wunderground v.1.13,2013-01-25 20:29:00,
2013-01-25 15:34:00,33.9,32.9,30.34,West,277,0.0,0.0,96,0.00,,,0.00,Wunderground v.1.13,2013-01-25 20:34:00,
2013-01-25 15:39:00,34.4,33.6,30.35,West,277,0.0,1.0,97,0.00,,,0.00,Wunderground v.1.13,2013-01-25 20:39:00,
2013-01-25 15:44:00,34.7,33.9,30.34,West,277,0.0,0.0,97,0.00,,,0.00,Wunderground v.1.13,2013-01-25 20:44:00,
2013-01-25 15:49:00,34.8,34.0,30.35,West,277,0.0,0.0,97,0.00,,,0.00,Wunderground v.1.13,2013-01-25 20:49:00,
2013-01-25 15:54:00,35.2,34.4,30.35,West,277,0.0,1.0,97,0.00,,,0.00,Wunderground v.1.13,2013-01-25 20:54:00,
2013-01-25 15:59:00,35.5,34.7,30.34,West,277,0.0,1.0,97,0.00,,,0.00,Wunderground v.1.13,2013-01-25 20:59:00,
2013-01-25 16:04:00,36.2,35.4,30.34,West,277,0.0,2.0,97,0.00,,,0.00,Wunderground v.1.13,2013-01-25 21:04:00,
2013-01-25 16:09:00,37.0,36.2,30.33,WNW,287,0.0,2.0,97,0.00,,,0.00,Wunderground v.1.13,2013-01-25 21:09:00,
2013-01-25 16:14:00,37.5,36.7,30.34,WNW,287,0.0,1.0,97,0.00,,,0.00,Wunderground v.1.13,2013-01-25 21:14:00,
2013-01-25 16:19:00,37.4,36.9,30.34,WNW,287,0.0,2.0,98,0.00,,,0.00,Wunderground v.1.13,2013-01-25 21:19:00,
2013-01-25 16:24:00,37.0,36.2,30.34,WNW,297,0.0,2.0,97,0.00,,,0.00,Wunderground v.1.13,2013-01-25 21:24:00,
2013-01-25 16:29:00,37.0,36.2,30.35,NNW,343,0.0,3.0,97,0.00,,,0.00,Wunderground v.1.13,2013-01-25 21:29:00,
2013-01-25 16:34:00,37.1,36.3,30.35,NNE,19,3.0,4.0,97,0.00,,,0.01,Wunderground v.1.13,2013-01-25 21:34:00,
2013-01-25 16:39:00,37.1,36.3,30.35,NNE,19,2.0,4.0,97,0.00,,,0.01,Wunderground v.1.13,2013-01-25 21:39:00,
2013-01-25 16:44:00,37.1,36.3,30.35,NNE,19,1.0,2.0,97,0.00,,,0.01,Wunderground v.1.13,2013-01-25 21:44:00,
2013-01-25 16:49:00,37.2,36.4,30.35,NNE,19,1.0,4.0,97,0.00,,,0.01,Wunderground v.1.13,2013-01-25 21:49:00,
2013-01-25 16:55:00,37.2,36.4,30.35,NNE,19,0.0,1.0,97,0.00,,,0.01,Wunderground v.1.13,2013-01-25 21:55:00,
2013-01-25 17:00:00,37.3,36.5,30.35,NNE,19,0.0,0.0,97,0.00,,,0.01,Wunderground v.1.13,2013-01-25 22:00:00,
2013-01-25 17:05:00,37.4,36.6,30.35,NNE,19,0.0,0.0,97,0.00,,,0.01,Wunderground v.1.13,2013-01-25 22:05:00,
2013-01-25 17:10:00,37.5,36.7,30.35,NNE,19,0.0,0.0,97,0.00,,,0.01,Wunderground v.1.13,2013-01-25 22:10:00,
2013-01-25 17:15:00,37.6,36.8,30.35,WNW,290,0.0,0.0,97,0.00,,,0.01,Wunderground v.1.13,2013-01-25 22:15:00,
2013-01-25 17:20:00,37.6,36.8,30.36,WNW,291,0.0,0.0,97,0.00,,,0.01,Wunderground v.1.13,2013-01-25 22:20:00,
2013-01-25 17:25:00,37.5,36.7,30.36,WNW,291,0.0,0.0,97,0.00,,,0.02,Wunderground v.1.13,2013-01-25 22:25:00,
2013-01-25 17:30:00,37.6,36.8,30.36,WNW,303,0.0,0.0,97,0.00,,,0.02,Wunderground v.1.13,2013-01-25 22:30:00,
2013-01-25 17:35:00,37.7,36.9,30.36,WNW,303,0.0,0.0,97,0.00,,,0.02,Wunderground v.1.13,2013-01-25 22:35:00,
2013-01-25 17:40:00,37.9,37.1,30.36,WNW,303,0.0,0.0,97,0.00,,,0.02,Wunderground v.1.13,2013-01-25 22:40:00,
2013-01-25 17:45:00,38.0,37.2,30.37,WNW,303,1.0,1.0,97,0.00,,,0.03,Wunderground v.1.13,2013-01-25 22:45:00,
2013-01-25 17:50:00,38.2,37.4,30.36,WNW,303,0.0,0.0,97,0.00,,,0.03,Wunderground v.1.13,2013-01-25 22:50:00,
2013-01-25 17:56:00,38.4,37.6,30.36,WNW,303,0.0,1.0,97,0.05,,,0.04,Wunderground v.1.13,2013-01-25 22:56:00,
2013-01-25 18:01:00,38.4,37.6,30.37,WNW,303,0.0,0.0,97,0.27,,,0.20,Wunderground v.1.13,2013-01-25 23:01:00,
2013-01-25 18:06:00,38.6,37.8,30.37,NNE,27,0.0,1.0,97,0.11,,,0.21,Wunderground v.1.13,2013-01-25 23:06:00,
2013-01-25 18:11:00,38.7,37.9,30.37,NNE,27,0.0,1.0,97,0.09,,,0.21,Wunderground v.1.13,2013-01-25 23:11:00,
2013-01-25 18:16:00,38.8,38.0,30.36,NNE,27,0.0,0.0,97,0.05,,,0.21,Wunderground v.1.13,2013-01-25 23:16:00,
2013-01-25 18:21:00,38.9,38.1,30.36,NNE,27,0.0,0.0,97,0.04,,,0.21,Wunderground v.1.13,2013-01-25 23:21:00,
2013-01-25 18:26:00,39.0,38.2,30.37,NNE,28,0.0,2.0,97,0.00,,,0.21,Wunderground v.1.13,2013-01-25 23:26:00,
2013-01-25 18:31:00,39.1,38.3,30.37,NNE,28,0.0,0.0,97,0.00,,,0.21,Wunderground v.1.13,2013-01-25 23:31:00,
2013-01-25 18:36:00,39.1,38.3,30.37,NNE,28,0.0,0.0,97,0.00,,,0.21,Wunderground v.1.13,2013-01-25 23:36:00,
2013-01-25 18:41:00,38.7,37.9,30.37,NNE,28,0.0,1.0,97,0.00,,,0.21,Wunderground v.1.13,2013-01-25 23:41:00,
2013-01-25 18:46:00,38.2,37.2,30.37,NNE,28,1.0,1.0,96,0.00,,,0.22,Wunderground v.1.13,2013-01-25 23:46:00,
2013-01-25 18:51:00,37.7,36.7,30.37,NNE,28,2.0,2.0,96,0.00,,,0.22,Wunderground v.1.13,2013-01-25 23:51:00,
2013-01-25 18:56:00,37.5,36.5,30.36,NNE,28,0.0,3.0,96,0.00,,,0.22,Wunderground v.1.13,2013-01-25 23:56:00,
2013-01-25 19:01:00,38.0,37.2,30.36,NNE,28,1.0,2.0,97,0.00,,,0.22,Wunderground v.1.13,2013-01-26 00:01:00,
2013-01-25 19:06:00,38.3,37.5,30.37,NNE,28,0.0,1.0,97,0.00,,,0.22,Wunderground v.1.13,2013-01-26 00:06:00,
2013-01-25 19:11:00,38.5,37.7,30.37,NNE,28,0.0,1.0,97,0.00,,,0.22,Wunderground v.1.13,2013-01-26 00:11:00,
2013-01-25 19:16:00,38.7,37.9,30.37,NNE,28,0.0,0.0,97,0.00,,,0.23,Wunderground v.1.13,2013-01-26 00:16:00,
2013-01-25 19:21:00,38.6,38.1,30.37,NNE,28,0.0,0.0,98,0.00,,,0.23,Wunderground v.1.13,2013-01-26 00:21:00,
2013-01-25 19:26:00,37.9,37.1,30.37,NNE,28,0.0,0.0,97,0.00,,,0.23,Wunderground v.1.13,2013-01-26 00:26:00,
2013-01-25 19:31:00,37.6,36.8,30.37,NNE,28,0.0,1.0,97,0.00,,,0.23,Wunderground v.1.13,2013-01-26 00:31:00,
2013-01-25 19:36:00,37.5,36.7,30.37,NNE,28,0.0,0.0,97,0.00,,,0.24,Wunderground v.1.13,2013-01-26 00:36:00,
2013-01-25 19:41:00,37.0,36.2,30.37,NNE,28,0.0,0.0,97,0.00,,,0.24,Wunderground v.1.13,2013-01-26 00:41:00,
2013-01-25 19:46:00,37.2,36.4,30.37,NNE,28,0.0,0.0,97,0.00,,,0.24,Wunderground v.1.13,2013-01-26 00:46:00,
2013-01-25 19:51:00,37.5,36.7,30.37,NNE,28,0.0,0.0,97,0.00,,,0.24,Wunderground v.1.13,2013-01-26 00:51:00,
2013-01-25 19:57:00,37.8,37.0,30.37,NNE,28,0.0,0.0,97,0.00,,,0.24,Wunderground v.1.13,2013-01-26 00:57:00,
2013-01-25 20:02:00,37.9,37.1,30.37,NNE,28,0.0,0.0,97,0.00,,,0.24,Wunderground v.1.13,2013-01-26 01:02:00,
2013-01-25 20:07:00,37.9,37.1,30.37,NNE,28,0.0,0.0,97,0.00,,,0.24,Wunderground v.1.13,2013-01-26 01:07:00,
2013-01-25 20:12:00,37.8,37.3,30.37,NNE,28,0.0,0.0,98,0.00,,,0.24,Wunderground v.1.13,2013-01-26 01:12:00,
2013-01-25 20:17:00,37.8,37.3,30.37,NNE,28,0.0,0.0,98,0.00,,,0.24,Wunderground v.1.13,2013-01-26 01:17:00,
2013-01-25 20:22:00,37.7,37.2,30.36,NNE,28,0.0,0.0,98,0.00,,,0.24,Wunderground v.1.13,2013-01-26 01:22:00,
2013-01-25 20:27:00,37.6,37.1,30.37,NNE,28,2.0,2.0,98,0.00,,,0.25,Wunderground v.1.13,2013-01-26 01:27:00,
2013-01-25 20:32:00,37.5,37.0,30.36,NNE,28,0.0,2.0,98,0.00,,,0.25,Wunderground v.1.13,2013-01-26 01:32:00,
2013-01-25 20:37:00,37.6,37.1,30.37,NNE,28,0.0,2.0,98,0.00,,,0.25,Wunderground v.1.13,2013-01-26 01:37:00,
2013-01-25 20:42:00,37.5,37.0,30.37,NNE,28,0.0,1.0,98,0.00,,,0.25,Wunderground v.1.13,2013-01-26 01:42:00,
2013-01-25 20:47:00,37.8,37.3,30.37,NNE,28,0.0,1.0,98,0.00,,,0.25,Wunderground v.1.13,2013-01-26 01:47:00,
2013-01-25 20:52:00,38.5,38.0,30.37,NNE,28,0.0,1.0,98,0.00,,,0.25,Wunderground v.1.13,2013-01-26 01:52:00,
2013-01-25 20:57:00,38.8,38.3,30.37,NNE,28,0.0,0.0,98,0.00,,,0.25,Wunderground v.1.13,2013-01-26 01:57:00,
2013-01-25 21:02:00,39.2,38.7,30.37,NNE,28,0.0,1.0,98,0.00,,,0.25,Wunderground v.1.13,2013-01-26 02:02:00,
2013-01-25 21:07:00,39.4,38.9,30.36,NNE,28,0.0,0.0,98,0.00,,,0.25,Wunderground v.1.13,2013-01-26 02:07:00,
2013-01-25 21:12:00,39.4,38.9,30.37,NNE,28,0.0,0.0,98,0.00,,,0.25,Wunderground v.1.13,2013-01-26 02:12:00,
2013-01-25 21:17:00,39.4,38.9,30.37,NNE,28,0.0,0.0,98,0.00,,,0.25,Wunderground v.1.13,2013-01-26 02:17:00,
2013-01-25 21:22:00,39.2,38.7,30.37,NNE,28,0.0,1.0,98,0.00,,,0.25,Wunderground v.1.13,2013-01-26 02:22:00,
2013-01-25 21:27:00,39.1,38.6,30.37,NNE,28,0.0,1.0,98,0.00,,,0.25,Wunderground v.1.13,2013-01-26 02:27:00,
2013-01-25 21:32:00,39.1,38.6,30.37,NNE,28,0.0,1.0,98,0.00,,,0.25,Wunderground v.1.13,2013-01-26 02:32:00,
2013-01-25 21:37:00,39.0,38.5,30.37,NNE,28,0.0,1.0,98,0.00,,,0.25,Wunderground v.1.13,2013-01-26 02:37:00,
2013-01-25 21:42:00,38.9,38.4,30.37,NNE,28,0.0,2.0,98,0.00,,,0.25,Wunderground v.1.13,2013-01-26 02:42:00,
2013-01-25 21:47:00,38.8,38.3,30.38,NNE,28,0.0,1.0,98,0.00,,,0.25,Wunderground v.1.13,2013-01-26 02:47:00,
2013-01-25 21:53:00,38.6,38.1,30.37,NNE,28,0.0,0.0,98,0.00,,,0.25,Wunderground v.1.13,2013-01-26 02:53:00,
2013-01-25 21:57:00,38.7,38.2,30.37,NNE,28,0.0,0.0,98,0.00,,,0.25,Wunderground v.1.13,2013-01-26 02:57:00,
2013-01-25 22:02:00,38.8,38.3,30.37,NNE,28,0.0,0.0,98,0.00,,,0.25,Wunderground v.1.13,2013-01-26 03:02:00,
2013-01-25 22:08:00,38.8,38.3,30.37,NNE,28,0.0,1.0,98,0.00,,,0.25,Wunderground v.1.13,2013-01-26 03:08:00,
2013-01-25 22:13:00,38.7,38.2,30.37,NNE,28,0.0,0.0,98,0.00,,,0.25,Wunderground v.1.13,2013-01-26 03:13:00,
2013-01-25 22:18:00,38.6,38.1,30.37,NNE,28,0.0,2.0,98,0.00,,,0.25,Wunderground v.1.13,2013-01-26 03:18:00,
2013-01-25 22:23:00,38.3,37.8,30.37,NNE,28,0.0,1.0,98,0.00,,,0.25,Wunderground v.1.13,2013-01-26 03:23:00,
2013-01-25 22:28:00,37.7,37.2,30.37,NNE,28,0.0,0.0,98,0.00,,,0.25,Wunderground v.1.13,2013-01-26 03:28:00,
2013-01-25 22:33:00,37.8,37.3,30.37,NNE,28,0.0,0.0,98,0.00,,,0.25,Wunderground v.1.13,2013-01-26 03:33:00,
2013-01-25 22:38:00,38.0,37.5,30.37,NNE,28,0.0,1.0,98,0.00,,,0.25,Wunderground v.1.13,2013-01-26 03:38:00,
2013-01-25 22:43:00,38.0,37.5,30.37,NNE,28,0.0,1.0,98,0.00,,,0.25,Wunderground v.1.13,2013-01-26 03:43:00,
2013-01-25 22:48:00,37.5,37.0,30.37,NNE,28,0.0,0.0,98,0.00,,,0.25,Wunderground v.1.13,2013-01-26 03:48:00,
2013-01-25 22:53:00,37.1,36.6,30.37,NNE,28,0.0,0.0,98,0.00,,,0.25,Wunderground v.1.13,2013-01-26 03:53:00,
2013-01-25 22:58:00,36.8,36.3,30.37,NNE,28,0.0,0.0,98,0.00,,,0.25,Wunderground v.1.13,2013-01-26 03:58:00,
2013-01-25 23:03:00,37.0,36.5,30.37,NNE,28,0.0,0.0,98,0.00,,,0.25,Wunderground v.1.13,2013-01-26 04:03:00,
2013-01-25 23:08:00,37.4,36.9,30.37,NNE,28,0.0,1.0,98,0.00,,,0.25,Wunderground v.1.13,2013-01-26 04:08:00,
2013-01-25 23:13:00,37.6,37.1,30.37,NNE,28,0.0,0.0,98,0.00,,,0.25,Wunderground v.1.13,2013-01-26 04:13:00,
2013-01-25 23:18:00,37.7,37.2,30.37,NNE,28,0.0,1.0,98,0.00,,,0.25,Wunderground v.1.13,2013-01-26 04:18:00,
2013-01-25 23:23:00,37.7,37.2,30.37,NNE,28,0.0,1.0,98,0.00,,,0.25,Wunderground v.1.13,2013-01-26 04:23:00,
2013-01-25 23:28:00,37.6,37.1,30.37,NNE,28,0.0,1.0,98,0.00,,,0.25,Wunderground v.1.13,2013-01-26 04:28:00,
2013-01-25 23:33:00,37.5,37.0,30.37,NNE,28,0.0,0.0,98,0.00,,,0.25,Wunderground v.1.13,2013-01-26 04:33:00,
2013-01-25 23:39:00,37.5,37.0,30.37,NNE,28,0.0,1.0,98,0.00,,,0.25,Wunderground v.1.13,2013-01-26 04:39:00,
2013-01-25 23:44:00,37.4,36.9,30.37,NNE,28,0.0,1.0,98,0.00,,,0.25,Wunderground v.1.13,2013-01-26 04:44:00,
2013-01-25 23:49:00,37.3,36.8,30.37,NNE,28,0.0,1.0,98,0.00,,,0.25,Wunderground v.1.13,2013-01-26 04:49:00,
2013-01-25 23:54:00,37.2,36.7,30.37,NNE,28,0.0,1.0,98,0.00,,,0.25,Wunderground v.1.13,2013-01-26 04:54:00,
2013-01-25 23:59:00,37.1,36.6,30.37,NNE,28,0.0,1.0,98,0.00,,,0.25,Wunderground v.1.13,2013-01-26 04:59:00,